Погода в Медвенке

Россия / Тульская область     54°15′25″N   37°41′56″E
темп.,
°C
ветер,
м/с
пор.,
м/с
влажн.,
%
обл.,
%
осадки,
мм/ч
давл.,
гПа
погр.,
м
9 марта, вт
вт900:00−14ссз239332 0.0 101021
03:00−15ссз239535 0.0 101323
06:00−16ссз339845 0.0 101444
09:00−14ссз389560 0.0 1016276
12:00−11ссз468889 0.0 1017626
15:00−10сз458494 0.1 1017868
18:00−11сз4890100 0.1 1019340
21:00−16сз379390 0.1 1021135
10 марта, ср
ср1000:00−19ссз339642 0.0 102337
03:00−22ссз239727 0.0 102523
06:00−23ссз23960 0.0 102624
09:00−21ссз24959 0.0 1027182
12:00−17с238559 0.0 1027390
15:00−15с348271 0.0 1028528
18:00−18ссв239040 0.0 102825
21:00−22св239420 0.0 103021
11 марта, чт
чт1100:00−23св23920 0.0 103220
03:00−25св12910 0.0 103320
06:00−26св11910 0.0 103420
09:00−21всв00870 0.0 103433
12:00−15зюз00770 0.0 1034272
15:00−13ююз11740 0.0 1033359
18:00−17ю22850 0.0 103320
21:00−20ю23850 0.0 103320
12 марта, пт
пт1200:00−22ююз23840 0.0 103320
03:00−22ю33840 0.0 103341
06:00−22ю35860 0.0 103370
09:00−17ю511790 0.0 1031284
12:00−12ю510780 0.0 1030431
15:00−10ю611768 0.0 1029578
18:00−12ю6148399 0.0 1027473
21:00−11ю6167799 0.0 1026553
13 марта, сб
сб1300:00−10ю71774100 0.0 1025634
03:00−9ю71774100 0.0 1023676
06:00−9ю81693100 0.5 1021815
09:00−8ю81594100 1.3 1020759
12:00−6ююз81392100 0.8 1019775
15:00−4ююз71395100 1.8 1018691
18:00−3ююз61194100 0.6 1018524
21:00−2ююз4109698 0.8 1018437